sat.trackr.live / text

‹ back to catalog

RS-44 & BREEZE-KM R/B

NORAD 44909 · 2019-096E

PAYLOAD ACTIVE UNKNOWN

§ Identity

Operator
Country
CIS
Launch date
2019-12-26
Launch site
PLMSC
Launch vehicle
Mass (kg)
RCS (m²)

Purposes: comms

External: N2YO · Heavens-Above · Gunter

§ Orbital elements

Epoch: 2026-05-25T02:21:03.502080Z

Period
112.52 min
Inclination
82.5226°
Eccentricity
0.0217126
Mean motion
12.79748349 rev/d
Perigee alt
1,174.8 km
Apogee alt
1,510.1 km
Semi-major
7,720.6 km
B*
2.6341e-5
RAAN
355.0510°
Arg perigee
198.1070°
Mean anomaly
161.2213°
Rev number
29,939

§ Raw data

RS-44 & BREEZE-KM R/B1 44909U 19096E   26145.09795720  .00000018  00000+0  26341-4 0  99962 44909  82.5226 355.0510 0217126 198.1070 161.2213 12.79748349299399

JSON: /api/v1/satellites/44909 · /tle

For live sub-satellite position, see the globe view (requires WebGL).

§ Visibility from observer

Set your observer location to see the next 7 days of passes ≥ 10°. The values pass through the URL so the page stays shareable.

No JS? Fill the form by hand. The geolocation button needs JavaScript.

§ Radio — SatNOGS DB

ModeDescriptionDownlinkUplink
DOKA Doka-B 435.215 MHz
FSK Mode U 435.315 MHz
CW Mode U - Beacon 435.605 MHz
BPSK Mode U Audio 435.660 MHz
USB Mode V/U - Transponder 435.610 MHz–435.670 MHz 145.935 MHz–145.995 MHz

5 transmitters · refreshed weekly from db.satnogs.org